Starlink 30880

operational
NORAD ID: 58232 Int'l Des: 2023-171 Owner: SPXS Country: US Constellation: starlink
LEOCIRCULAR

About Starlink 30880

Description loading...

Live Position

Loading 3D Globe...

Upcoming Passes

Altitude History

Altitude vs Time

uPlot chart will show altitude changes over time

Two-Line Element Set

1 58232U 23171C 25258.12015388 .00001369 00000-0 11639-3 0 9996
2 58232 43.0049 160.1371 0001977 266.7589 93.3027 15.02548882103313
Epoch: Sep 15, 2025 • Age: 23 hours

Current Status

Altitude 559.1 km
Velocity 7.58 km/s
Sub-Earth Point -2.51°S, 48.21°W
Launch Date Nov 8, 2023
Age 1.8 years
Type internet

Technical Details

Classification Payload
Mass 730.00 kg
Dry Mass 700.00 kg
Total Mass 730.00 kg
Length 0.30 m
Diameter 4.10 m
Span 29.00 m
Shape Box + pan
Manufacturer SPXS
Bus Type Starlink V2M
Phase Status In Orbit
Owner/State SPXS/US

Large Constellations

Loading constellations...